Wetterdaten: Woche 12.12.16 - 18.12.16 (KW50)
Datum Zeit Temp. I. Temp. A. Feuchte I. Feuchte A. Luftdruck Regen Wind Richtung Sonnenschein UV Solar Taupunkt Windchill Windben
12.12.2016 00:00 23,5 C 3,8 C 44 % 94 % 1019,8 hPa 0,0 l/m 10,7 km/h (2 Bft) W 0,00 h 0,0 UV-I 0 W/m 3,0 C 0,4 C 17,2 km/h (3 Bft)
12.12.2016 01:00 23,7 C 3,8 C 46 % 94 % 1019,9 hPa 0,0 l/m 7,2 km/h (2 Bft) W 0,00 h 0,0 UV-I 0 W/m 2,9 C 2,8 C 12,3 km/h (3 Bft)
12.12.2016 02:00 23,7 C 3,7 C 47 % 94 % 1020,1 hPa 0,2 l/m 7,2 km/h (2 Bft) W 0,00 h 0,0 UV-I 0 W/m 2,8 C 2,6 C 12,2 km/h (2 Bft)
12.12.2016 03:00 23,6 C 3,5 C 47 % 95 % 1020,0 hPa 0,2 l/m 6,7 km/h (2 Bft) W 0,00 h 0,0 UV-I 0 W/m 2,7 C 2,5 C 11,1 km/h (2 Bft)
12.12.2016 04:00 23,7 C 3,4 C 47 % 95 % 1020,2 hPa 0,0 l/m 4,2 km/h (1 Bft) W-SW 0,00 h 0,0 UV-I 0 W/m 2,7 C 3,3 C 8,8 km/h (2 Bft)
12.12.2016 05:00 23,3 C 3,5 C 48 % 95 % 1020,4 hPa 0,0 l/m 4,3 km/h (1 Bft) W 0,00 h 0,0 UV-I 0 W/m 2,7 C 3,2 C 8,5 km/h (2 Bft)
12.12.2016 06:00 22,9 C 3,7 C 48 % 94 % 1020,6 hPa 0,0 l/m 5,0 km/h (1 Bft) W 0,00 h 0,0 UV-I 0 W/m 2,9 C 3,3 C 8,9 km/h (2 Bft)
12.12.2016 07:00 22,8 C 3,8 C 48 % 94 % 1021,2 hPa 0,0 l/m 3,1 km/h (1 Bft) W 0,00 h 0,0 UV-I 0 W/m 2,9 C 3,7 C 6,4 km/h (2 Bft)
12.12.2016 08:00 22,9 C 3,9 C 48 % 94 % 1021,8 hPa 0,0 l/m 1,8 km/h (1 Bft) W 0,00 h 0,0 UV-I 6 W/m 3,0 C 3,9 C 4,5 km/h (1 Bft)
12.12.2016 09:00 22,8 C 4,0 C 47 % 95 % 1022,7 hPa 0,0 l/m 1,8 km/h (1 Bft) W-SW 0,00 h 0,0 UV-I 17 W/m 3,3 C 4,0 C 4,3 km/h (1 Bft)
12.12.2016 10:00 22,5 C 4,4 C 44 % 95 % 1023,4 hPa 0,0 l/m 5,0 km/h (1 Bft) W 0,00 h 0,0 UV-I 32 W/m 3,6 C 4,0 C 9,2 km/h (2 Bft)
12.12.2016 11:00 22,3 C 4,8 C 43 % 93 % 1023,8 hPa 0,0 l/m 6,3 km/h (2 Bft) W 0,00 h 0,0 UV-I 53 W/m 3,8 C 3,9 C 11,6 km/h (2 Bft)
12.12.2016 12:00 22,6 C 5,1 C 43 % 92 % 1024,1 hPa 0,0 l/m 6,8 km/h (2 Bft) W 0,00 h 0,5 UV-I 63 W/m 3,9 C 4,1 C 11,7 km/h (2 Bft)
12.12.2016 13:00 23,0 C 5,2 C 44 % 91 % 1024,3 hPa 0,0 l/m 6,8 km/h (2 Bft) NW 0,00 h 0,5 UV-I 55 W/m 3,9 C 4,2 C 11,4 km/h (2 Bft)
12.12.2016 14:00 23,1 C 5,4 C 45 % 91 % 1024,5 hPa 0,2 l/m 4,1 km/h (1 Bft) NW 0,00 h 0,0 UV-I 34 W/m 4,1 C 5,0 C 7,4 km/h (2 Bft)
12.12.2016 15:00 23,3 C 5,1 C 45 % 92 % 1024,9 hPa 0,0 l/m 2,0 km/h (1 Bft) W-SW 0,00 h 0,0 UV-I 15 W/m 4,0 C 5,1 C 4,0 km/h (1 Bft)
12.12.2016 16:00 23,3 C 4,5 C 46 % 93 % 1025,5 hPa 0,0 l/m 4,8 km/h (1 Bft) W 0,00 h 0,0 UV-I 6 W/m 3,4 C 4,2 C 9,0 km/h (2 Bft)
12.12.2016 17:00 23,2 C 4,3 C 46 % 94 % 1026,0 hPa 0,0 l/m 1,0 km/h (0 Bft) W 0,00 h 0,0 UV-I 0 W/m 3,4 C 4,3 C 2,4 km/h (1 Bft)
12.12.2016 18:00 23,1 C 4,1 C 46 % 94 % 1026,5 hPa 0,2 l/m 0,3 km/h (0 Bft) NW 0,00 h 0,0 UV-I 0 W/m 3,2 C 4,1 C 0,7 km/h (0 Bft)
12.12.2016 19:00 23,2 C 3,7 C 46 % 94 % 1026,9 hPa 0,2 l/m 0,0 km/h (0 Bft) N 0,00 h 0,0 UV-I 0 W/m 2,9 C 3,7 C 0,0 km/h (0 Bft)
12.12.2016 20:00 23,3 C 3,4 C 47 % 94 % 1027,2 hPa 0,2 l/m 0,0 km/h (0 Bft) N 0,00 h 0,0 UV-I 0 W/m 2,6 C 3,4 C 0,0 km/h (0 Bft)
12.12.2016 21:00 23,5 C 3,2 C 50 % 95 % 1027,5 hPa 0,0 l/m 0,0 km/h (0 Bft) N 0,00 h 0,0 UV-I 0 W/m 2,5 C 3,2 C 0,0 km/h (0 Bft)
12.12.2016 22:00 23,6 C 2,9 C 49 % 95 % 1027,9 hPa 0,0 l/m 0,0 km/h (0 Bft) N 0,00 h 0,0 UV-I 0 W/m 2,2 C 2,9 C 0,0 km/h (0 Bft)
12.12.2016 23:00 23,4 C 2,8 C 49 % 96 % 1028,0 hPa 0,2 l/m 0,0 km/h (0 Bft) N 0,00 h 0,0 UV-I 0 W/m 2,2 C 2,8 C 0,0 km/h (0 Bft)
13.12.2016 00:00 23,3 C 2,6 C 48 % 96 % 1027,9 hPa 0,2 l/m 0,0 km/h (0 Bft) N 0,00 h 0,0 UV-I 0 W/m 2,0 C 2,6 C 0,0 km/h (0 Bft)
13.12.2016 01:00 23,4 C 2,3 C 49 % 96 % 1027,9 hPa 0,0 l/m 0,0 km/h (0 Bft) N 0,00 h 0,0 UV-I 0 W/m 1,8 C 2,3 C 0,0 km/h (0 Bft)
13.12.2016 02:00 23,6 C 2,3 C 49 % 96 % 1028,0 hPa 0,0 l/m 0,0 km/h (0 Bft) N 0,00 h 0,0 UV-I 0 W/m 1,7 C 2,3 C 0,0 km/h (0 Bft)
13.12.2016 03:00 23,6 C 2,2 C 52 % 97 % 1027,8 hPa 0,0 l/m 0,0 km/h (0 Bft) N 0,00 h 0,0 UV-I 0 W/m 1,8 C 2,2 C 0,0 km/h (0 Bft)
13.12.2016 04:00 23,6 C 2,3 C 51 % 97 % 1027,7 hPa 0,0 l/m 0,0 km/h (0 Bft) N 0,00 h 0,0 UV-I 0 W/m 1,8 C 2,3 C 0,1 km/h (0 Bft)
13.12.2016 05:00 23,5 C 2,3 C 52 % 97 % 1027,6 hPa 0,0 l/m 0,0 km/h (0 Bft) N 0,00 h 0,0 UV-I 0 W/m 1,9 C 2,3 C 0,0 km/h (0 Bft)
13.12.2016 06:00 23,5 C 2,3 C 51 % 97 % 1027,7 hPa 0,0 l/m 0,0 km/h (0 Bft) N 0,00 h 0,0 UV-I 0 W/m 1,8 C 2,3 C 0,0 km/h (0 Bft)
13.12.2016 07:00 23,1 C 2,2 C 50 % 97 % 1027,9 hPa 0,0 l/m 0,0 km/h (0 Bft) N 0,00 h 0,0 UV-I 0 W/m 1,8 C 2,2 C 0,0 km/h (0 Bft)
13.12.2016 08:00 23,1 C 2,3 C 50 % 97 % 1028,0 hPa 0,0 l/m 0,0 km/h (0 Bft) N 0,00 h 0,0 UV-I 11 W/m 1,9 C 2,3 C 0,0 km/h (0 Bft)
13.12.2016 09:00 23,2 C 2,5 C 49 % 98 % 1027,9 hPa 0,0 l/m 0,6 km/h (0 Bft) S 0,00 h 0,0 UV-I 48 W/m 2,2 C 2,5 C 1,7 km/h (1 Bft)
13.12.2016 10:00 23,4 C 2,8 C 48 % 97 % 1028,1 hPa 0,0 l/m 1,1 km/h (1 Bft) S 0,00 h 0,5 UV-I 70 W/m 2,4 C 2,8 C 3,4 km/h (1 Bft)
13.12.2016 11:00 23,5 C 3,2 C 47 % 97 % 1027,6 hPa 0,0 l/m 1,3 km/h (1 Bft) S 0,00 h 0,5 UV-I 79 W/m 2,8 C 3,2 C 3,4 km/h (1 Bft)
13.12.2016 12:00 23,1 C 3,2 C 46 % 96 % 1027,2 hPa 0,0 l/m 2,8 km/h (1 Bft) S 0,00 h 0,5 UV-I 70 W/m 2,6 C 3,0 C 5,3 km/h (1 Bft)
13.12.2016 13:00 23,1 C 3,2 C 48 % 94 % 1026,7 hPa 0,0 l/m 1,8 km/h (1 Bft) S 0,00 h 0,5 UV-I 65 W/m 2,3 C 3,2 C 4,7 km/h (1 Bft)
13.12.2016 14:00 23,3 C 3,1 C 48 % 93 % 1026,6 hPa 0,0 l/m 0,5 km/h (0 Bft) S 0,00 h 0,0 UV-I 33 W/m 2,1 C 3,1 C 2,0 km/h (1 Bft)
13.12.2016 15:00 23,2 C 3,0 C 49 % 93 % 1026,4 hPa 0,0 l/m 0,8 km/h (0 Bft) S 0,00 h 0,0 UV-I 12 W/m 2,0 C 3,0 C 3,0 km/h (1 Bft)
13.12.2016 16:00 23,2 C 2,8 C 48 % 94 % 1026,5 hPa 0,0 l/m 0,0 km/h (0 Bft) S 0,00 h 0,0 UV-I 0 W/m 1,9 C 2,8 C 0,2 km/h (0 Bft)
13.12.2016 17:00 23,5 C 2,8 C 49 % 94 % 1026,4 hPa 0,0 l/m 0,3 km/h (0 Bft) S-SO 0,00 h 0,0 UV-I 0 W/m 1,9 C 2,8 C 1,3 km/h (1 Bft)
13.12.2016 18:00 23,7 C 2,7 C 49 % 94 % 1026,2 hPa 0,0 l/m 1,1 km/h (1 Bft) S 0,00 h 0,0 UV-I 0 W/m 1,8 C 2,7 C 3,1 km/h (1 Bft)
13.12.2016 19:00 23,8 C 2,7 C 48 % 94 % 1026,0 hPa 0,0 l/m 0,6 km/h (0 Bft) S 0,00 h 0,0 UV-I 0 W/m 1,8 C 2,7 C 2,1 km/h (1 Bft)
13.12.2016 20:00 23,8 C 2,5 C 47 % 95 % 1026,0 hPa 0,0 l/m 1,4 km/h (1 Bft) S 0,00 h 0,0 UV-I 0 W/m 1,8 C 2,5 C 4,0 km/h (1 Bft)
13.12.2016 21:00 23,7 C 2,4 C 47 % 95 % 1025,9 hPa 0,0 l/m 1,1 km/h (1 Bft) S-SW 0,00 h 0,0 UV-I 0 W/m 1,7 C 2,4 C 3,4 km/h (1 Bft)
13.12.2016 22:00 24,0 C 2,3 C 47 % 96 % 1025,8 hPa 1,0 l/m 1,4 km/h (1 Bft) S 0,00 h 0,0 UV-I 0 W/m 1,7 C 2,3 C 4,0 km/h (1 Bft)
13.12.2016 23:00 23,9 C 2,2 C 46 % 96 % 1025,6 hPa 0,8 l/m 2,4 km/h (1 Bft) S 0,00 h 0,0 UV-I 0 W/m 1,6 C 2,2 C 5,6 km/h (1 Bft)
14.12.2016 00:00 23,8 C 2,2 C 47 % 96 % 1025,3 hPa 0,0 l/m 1,9 km/h (1 Bft) S 0,00 h 0,0 UV-I 0 W/m 1,7 C 2,2 C 4,8 km/h (1 Bft)
14.12.2016 01:00 23,9 C 2,3 C 47 % 97 % 1025,2 hPa 0,0 l/m 0,5 km/h (0 Bft) S-SW 0,00 h 0,0 UV-I 0 W/m 1,8 C 2,3 C 1,8 km/h (1 Bft)
14.12.2016 02:00 23,9 C 2,3 C 49 % 97 % 1025,1 hPa 0,0 l/m 0,5 km/h (0 Bft) S 0,00 h 0,0 UV-I 0 W/m 1,8 C 2,3 C 1,0 km/h (0 Bft)
14.12.2016 03:00 23,9 C 2,2 C 49 % 97 % 1024,7 hPa 0,0 l/m 0,5 km/h (0 Bft) S 0,00 h 0,0 UV-I 0 W/m 1,8 C 2,2 C 1,9 km/h (1 Bft)
14.12.2016 04:00 23,4 C 2,3 C 49 % 97 % 1024,4 hPa 0,0 l/m 0,5 km/h (0 Bft) S 0,00 h 0,0 UV-I 0 W/m 1,9 C 2,3 C 1,8 km/h (1 Bft)
14.12.2016 05:00 23,1 C 2,3 C 49 % 97 % 1024,4 hPa 0,0 l/m 0,3 km/h (0 Bft) S-SW 0,00 h 0,0 UV-I 0 W/m 1,9 C 2,3 C 1,6 km/h (1 Bft)
14.12.2016 06:00 23,0 C 2,4 C 49 % 97 % 1024,4 hPa 0,0 l/m 0,6 km/h (0 Bft) S 0,00 h 0,0 UV-I 0 W/m 2,0 C 2,4 C 2,1 km/h (1 Bft)
14.12.2016 07:00 22,9 C 2,3 C 49 % 97 % 1024,4 hPa 0,0 l/m 0,5 km/h (0 Bft) S 0,00 h 0,0 UV-I 0 W/m 1,9 C 2,3 C 2,1 km/h (1 Bft)
14.12.2016 08:00 23,0 C 2,3 C 49 % 98 % 1024,9 hPa 0,0 l/m 0,9 km/h (0 Bft) S 0,00 h 0,0 UV-I 6 W/m 2,0 C 2,3 C 3,5 km/h (1 Bft)
14.12.2016 09:00 23,2 C 2,4 C 49 % 98 % 1025,4 hPa 0,0 l/m 0,2 km/h (0 Bft) S 0,00 h 0,0 UV-I 11 W/m 2,1 C 2,4 C 0,9 km/h (0 Bft)
14.12.2016 10:00 23,1 C 2,6 C 49 % 98 % 1025,6 hPa 0,0 l/m 0,0 km/h (0 Bft) N 0,00 h 0,0 UV-I 24 W/m 2,3 C 2,6 C 0,1 km/h (0 Bft)
14.12.2016 11:00 23,3 C 2,9 C 49 % 98 % 1025,7 hPa 0,0 l/m 0,0 km/h (0 Bft) N 0,00 h 0,0 UV-I 38 W/m 2,6 C 2,9 C 0,0 km/h (0 Bft)
14.12.2016 12:00 23,4 C 3,3 C 47 % 98 % 1025,7 hPa 0,0 l/m 0,0 km/h (0 Bft) N 0,00 h 0,0 UV-I 37 W/m 3,0 C 3,3 C 0,1 km/h (0 Bft)
14.12.2016 13:00 23,3 C 3,6 C 47 % 98 % 1025,7 hPa 0,0 l/m 0,0 km/h (0 Bft) N 0,00 h 0,0 UV-I 78 W/m 3,3 C 3,6 C 0,0 km/h (0 Bft)
14.12.2016 14:00 23,4 C 3,7 C 51 % 98 % 1025,9 hPa 0,0 l/m 0,0 km/h (0 Bft) W 0,00 h 0,0 UV-I 34 W/m 3,5 C 3,7 C 0,3 km/h (0 Bft)
14.12.2016 15:00 23,6 C 4,0 C 50 % 98 % 1025,9 hPa 0,0 l/m 0,0 km/h (0 Bft) N 0,00 h 0,0 UV-I 12 W/m 3,7 C 4,0 C 0,0 km/h (0 Bft)
14.12.2016 16:00 23,6 C 4,1 C 49 % 98 % 1026,1 hPa 0,0 l/m 0,0 km/h (0 Bft) N 0,00 h 0,0 UV-I 0 W/m 3,8 C 4,1 C 0,0 km/h (0 Bft)
14.12.2016 17:00 23,5 C 4,0 C 49 % 98 % 1026,4 hPa 0,0 l/m 0,0 km/h (0 Bft) N 0,00 h 0,0 UV-I 0 W/m 3,7 C 4,0 C 0,0 km/h (0 Bft)
14.12.2016 18:00 23,7 C 3,8 C 49 % 98 % 1026,8 hPa 0,0 l/m 0,0 km/h (0 Bft) N 0,00 h 0,0 UV-I 0 W/m 3,5 C 3,8 C 0,0 km/h (0 Bft)
14.12.2016 19:00 23,6 C 3,7 C 48 % 98 % 1027,5 hPa 0,0 l/m 0,0 km/h (0 Bft) N 0,00 h 0,0 UV-I 0 W/m 3,5 C 3,7 C 0,0 km/h (0 Bft)
14.12.2016 20:00 23,6 C 3,6 C 49 % 98 % 1027,7 hPa 0,0 l/m 0,0 km/h (0 Bft) N 0,00 h 0,0 UV-I 0 W/m 3,3 C 3,6 C 0,0 km/h (0 Bft)
14.12.2016 21:00 23,9 C 3,6 C 49 % 98 % 1028,2 hPa 0,0 l/m 0,0 km/h (0 Bft) N 0,00 h 0,0 UV-I 0 W/m 3,4 C 3,6 C 0,0 km/h (0 Bft)
14.12.2016 22:00 23,8 C 3,7 C 49 % 98 % 1028,5 hPa 0,0 l/m 0,0 km/h (0 Bft) N 0,00 h 0,0 UV-I 0 W/m 3,4 C 3,7 C 0,0 km/h (0 Bft)
14.12.2016 23:00 23,7 C 3,6 C 48 % 98 % 1028,5 hPa 0,0 l/m 0,0 km/h (0 Bft) N 0,00 h 0,0 UV-I 0 W/m 3,3 C 3,6 C 0,0 km/h (0 Bft)
15.12.2016 00:00 23,8 C 3,4 C 48 % 98 % 1028,8 hPa 0,0 l/m 0,0 km/h (0 Bft) N 0,00 h 0,0 UV-I 0 W/m 3,2 C 3,4 C 0,0 km/h (0 Bft)
15.12.2016 01:00 23,8 C 3,4 C 49 % 98 % 1028,8 hPa 0,0 l/m 0,0 km/h (0 Bft) N 0,00 h 0,0 UV-I 0 W/m 3,1 C 3,4 C 0,0 km/h (0 Bft)
15.12.2016 02:00 23,8 C 3,3 C 51 % 98 % 1028,9 hPa 0,0 l/m 0,0 km/h (0 Bft) N 0,00 h 0,0 UV-I 0 W/m 3,0 C 3,3 C 0,0 km/h (0 Bft)
15.12.2016 03:00 23,7 C 3,2 C 51 % 98 % 1028,9 hPa 0,0 l/m 0,0 km/h (0 Bft) N 0,00 h 0,0 UV-I 0 W/m 2,9 C 3,2 C 0,0 km/h (0 Bft)
15.12.2016 04:00 23,6 C 3,1 C 51 % 98 % 1028,7 hPa 0,0 l/m 0,0 km/h (0 Bft) N 0,00 h 0,0 UV-I 0 W/m 2,8 C 3,1 C 0,0 km/h (0 Bft)
15.12.2016 05:00 23,5 C 2,9 C 52 % 98 % 1028,8 hPa 0,0 l/m 0,0 km/h (0 Bft) N 0,00 h 0,0 UV-I 0 W/m 2,6 C 2,9 C 0,2 km/h (0 Bft)
15.12.2016 06:00 23,6 C 3,1 C 52 % 98 % 1029,0 hPa 0,0 l/m 0,0 km/h (0 Bft) N 0,00 h 0,0 UV-I 0 W/m 2,8 C 3,1 C 0,0 km/h (0 Bft)
15.12.2016 07:00 23,5 C 2,6 C 52 % 98 % 1029,2 hPa 0,0 l/m 0,0 km/h (0 Bft) N 0,00 h 0,0 UV-I 0 W/m 2,4 C 2,6 C 0,0 km/h (0 Bft)
15.12.2016 08:00 23,3 C 1,8 C 51 % 98 % 1029,6 hPa 0,0 l/m 0,2 km/h (0 Bft) O 0,00 h 0,0 UV-I 14 W/m 1,5 C 1,8 C 1,7 km/h (1 Bft)
15.12.2016 09:00 23,3 C 2,0 C 50 % 98 % 1030,2 hPa 0,0 l/m 0,9 km/h (0 Bft) O-SO 0,00 h 0,0 UV-I 40 W/m 1,7 C 2,0 C 3,4 km/h (1 Bft)
15.12.2016 10:00 23,0 C 2,2 C 48 % 98 % 1030,5 hPa 0,0 l/m 1,9 km/h (1 Bft) O-NO 0,00 h 0,0 UV-I 56 W/m 1,9 C 2,2 C 5,4 km/h (1 Bft)
15.12.2016 11:00 23,1 C 2,3 C 48 % 97 % 1030,3 hPa 0,0 l/m 0,7 km/h (0 Bft) O 0,00 h 0,0 UV-I 48 W/m 1,9 C 2,3 C 3,1 km/h (1 Bft)
15.12.2016 12:00 23,2 C 2,0 C 49 % 95 % 1030,1 hPa 0,0 l/m 1,8 km/h (1 Bft) O-SO 0,00 h 0,0 UV-I 41 W/m 1,4 C 1,9 C 5,4 km/h (1 Bft)
15.12.2016 13:00 23,3 C 1,5 C 48 % 94 % 1029,8 hPa 0,0 l/m 0,7 km/h (0 Bft) O-SO 0,00 h 0,0 UV-I 43 W/m 0,7 C 1,5 C 2,6 km/h (1 Bft)
15.12.2016 14:00 23,2 C 1,5 C 48 % 92 % 1029,7 hPa 0,0 l/m 1,5 km/h (1 Bft) O-SO 0,00 h 0,0 UV-I 36 W/m 0,3 C 1,5 C 5,2 km/h (1 Bft)
15.12.2016 15:00 23,7 C 1,0 C 49 % 90 % 1029,9 hPa 0,0 l/m 1,8 km/h (1 Bft) O-SO 0,00 h 0,0 UV-I 18 W/m -0,5 C 0,9 C 6,5 km/h (2 Bft)
15.12.2016 16:00 23,6 C 0,4 C 48 % 90 % 1029,9 hPa 0,0 l/m 1,6 km/h (1 Bft) O-SO 0,00 h 0,0 UV-I 0 W/m -1,0 C 0,3 C 5,3 km/h (1 Bft)
15.12.2016 17:00 23,3 C 0,1 C 46 % 92 % 1030,0 hPa 0,0 l/m 3,1 km/h (1 Bft) O 0,00 h 0,0 UV-I 0 W/m -1,0 C -0,1 C 8,9 km/h (2 Bft)
15.12.2016 18:00 22,7 C -0,2 C 48 % 93 % 1030,0 hPa 0,0 l/m 4,3 km/h (1 Bft) O-NO 0,00 h 0,0 UV-I 0 W/m -1,3 C -0,6 C 9,7 km/h (2 Bft)
15.12.2016 19:00 23,1 C -0,4 C 48 % 93 % 1030,2 hPa 0,0 l/m 4,3 km/h (1 Bft) O-NO 0,00 h 0,0 UV-I 0 W/m -1,4 C -0,7 C 9,7 km/h (2 Bft)
15.12.2016 20:00 23,6 C -0,6 C 46 % 93 % 1030,4 hPa 0,0 l/m 4,1 km/h (1 Bft) O-NO 0,00 h 0,0 UV-I 0 W/m -1,6 C -1,0 C 9,4 km/h (2 Bft)
15.12.2016 21:00 23,9 C -0,9 C 47 % 92 % 1030,6 hPa 0,0 l/m 5,6 km/h (1 Bft) O-NO 0,00 h 0,0 UV-I 0 W/m -2,1 C -1,7 C 12,3 km/h (3 Bft)
15.12.2016 22:00 23,9 C -1,2 C 46 % 92 % 1030,8 hPa 0,0 l/m 5,4 km/h (1 Bft) O 0,00 h 0,0 UV-I 0 W/m -2,4 C -1,8 C 12,0 km/h (2 Bft)
15.12.2016 23:00 24,0 C -1,2 C 46 % 91 % 1030,8 hPa 0,0 l/m 4,3 km/h (1 Bft) O-SO 0,00 h 0,0 UV-I 0 W/m -2,5 C -1,6 C 9,7 km/h (2 Bft)
16.12.2016 00:00 23,7 C -1,2 C 44 % 90 % 1030,9 hPa 0,0 l/m 3,5 km/h (1 Bft) O-SO 0,00 h 0,0 UV-I 0 W/m -2,6 C -1,6 C 8,0 km/h (2 Bft)
16.12.2016 01:00 23,7 C -1,3 C 45 % 90 % 1031,0 hPa 0,0 l/m 2,9 km/h (1 Bft) O-SO 0,00 h 0,0 UV-I 0 W/m -2,7 C -1,5 C 6,6 km/h (2 Bft)
16.12.2016 02:00 23,7 C -1,3 C 46 % 90 % 1031,3 hPa 0,0 l/m 2,3 km/h (1 Bft) O-SO 0,00 h 0,0 UV-I 0 W/m -2,8 C -1,4 C 5,7 km/h (1 Bft)
16.12.2016 03:00 23,7 C -1,4 C 48 % 89 % 1031,4 hPa 0,0 l/m 2,3 km/h (1 Bft) O-SO 0,00 h 0,0 UV-I 0 W/m -2,9 C -1,4 C 5,7 km/h (1 Bft)
16.12.2016 04:00 23,6 C -1,4 C 49 % 89 % 1031,5 hPa 0,0 l/m 2,3 km/h (1 Bft) O-SO 0,00 h 0,0 UV-I 0 W/m -3,0 C -1,5 C 5,4 km/h (1 Bft)
16.12.2016 05:00 23,6 C -1,5 C 49 % 89 % 1031,7 hPa 0,0 l/m 4,9 km/h (1 Bft) O-SO 0,00 h 0,0 UV-I 0 W/m -3,1 C -2,4 C 10,2 km/h (2 Bft)
16.12.2016 06:00 23,6 C -1,6 C 49 % 89 % 1032,1 hPa 0,0 l/m 1,4 km/h (1 Bft) SO 0,00 h 0,0 UV-I 0 W/m -3,2 C -1,6 C 4,0 km/h (1 Bft)
16.12.2016 07:00 23,5 C -1,8 C 49 % 89 % 1032,5 hPa 0,0 l/m 0,1 km/h (0 Bft) O 0,00 h 0,0 UV-I 0 W/m -3,3 C -1,8 C 0,3 km/h (0 Bft)
16.12.2016 08:00 23,4 C -1,7 C 49 % 90 % 1032,9 hPa 0,0 l/m 1,4 km/h (1 Bft) O-SO 0,00 h 0,0 UV-I 18 W/m -3,2 C -1,7 C 3,0 km/h (1 Bft)
16.12.2016 09:00 23,5 C -1,3 C 47 % 89 % 1033,2 hPa 0,0 l/m 0,9 km/h (0 Bft) O-SO 0,00 h 0,0 UV-I 52 W/m -2,9 C -1,3 C 3,0 km/h (1 Bft)
16.12.2016 10:00 23,2 C -1,0 C 43 % 88 % 1033,5 hPa 0,0 l/m 5,1 km/h (1 Bft) SO 0,00 h 0,5 UV-I 82 W/m -2,7 C -1,8 C 9,7 km/h (2 Bft)
16.12.2016 11:00 23,2 C -0,7 C 42 % 88 % 1033,5 hPa 0,0 l/m 4,1 km/h (1 Bft) O-SO 0,00 h 0,5 UV-I 96 W/m -2,5 C -1,0 C 8,8 km/h (2 Bft)
16.12.2016 12:00 23,3 C -0,2 C 42 % 87 % 1033,4 hPa 0,0 l/m 4,8 km/h (1 Bft) O-SO 0,43 h 0,6 UV-I 150 W/m -2,1 C -0,6 C 9,0 km/h (2 Bft)
16.12.2016 13:00 23,1 C -0,4 C 39 % 87 % 1033,4 hPa 0,0 l/m 2,5 km/h (1 Bft) O 0,00 h 0,5 UV-I 82 W/m -2,4 C -0,5 C 6,0 km/h (2 Bft)
16.12.2016 14:00 23,4 C 0,0 C 39 % 86 % 1033,4 hPa 0,0 l/m 1,1 km/h (1 Bft) O-SO 0,02 h 0,5 UV-I 114 W/m -2,0 C 0,0 C 2,5 km/h (1 Bft)
16.12.2016 15:00 23,7 C 0,1 C 41 % 86 % 1033,7 hPa 0,0 l/m 0,1 km/h (0 Bft) NO 0,00 h 0,0 UV-I 36 W/m -2,0 C 0,1 C 0,3 km/h (0 Bft)
16.12.2016 16:00 23,6 C -0,3 C 43 % 87 % 1034,0 hPa 0,0 l/m 0,0 km/h (0 Bft) N 0,00 h 0,0 UV-I 6 W/m -2,3 C -0,3 C 0,0 km/h (0 Bft)
16.12.2016 17:00 23,5 C -1,2 C 43 % 88 % 1034,4 hPa 0,0 l/m 0,0 km/h (0 Bft) N 0,00 h 0,0 UV-I 0 W/m -2,9 C -1,2 C 0,0 km/h (0 Bft)
16.12.2016 18:00 23,7 C -2,1 C 44 % 90 % 1034,8 hPa 0,0 l/m 0,0 km/h (0 Bft) N 0,00 h 0,0 UV-I 0 W/m -3,6 C -2,1 C 0,0 km/h (0 Bft)
16.12.2016 19:00 23,7 C -2,5 C 44 % 92 % 1035,1 hPa 0,0 l/m 0,0 km/h (0 Bft) N 0,00 h 0,0 UV-I 0 W/m -3,7 C -2,5 C 0,0 km/h (0 Bft)
16.12.2016 20:00 23,6 C -3,2 C 44 % 92 % 1035,5 hPa 0,0 l/m 0,0 km/h (0 Bft) N 0,00 h 0,0 UV-I 0 W/m -4,3 C -3,2 C 0,0 km/h (0 Bft)
16.12.2016 21:00 24,1 C -4,0 C 44 % 92 % 1035,8 hPa 0,0 l/m 0,0 km/h (0 Bft) N 0,00 h 0,0 UV-I 0 W/m -5,1 C -4,0 C 0,0 km/h (0 Bft)
16.12.2016 22:00 24,3 C -4,6 C 44 % 92 % 1036,2 hPa 0,0 l/m 0,0 km/h (0 Bft) N 0,00 h 0,0 UV-I 0 W/m -5,6 C -4,6 C 0,0 km/h (0 Bft)
16.12.2016 23:00 24,4 C -5,0 C 43 % 93 % 1036,4 hPa 0,0 l/m 0,0 km/h (0 Bft) N 0,00 h 0,0 UV-I 0 W/m -6,0 C -5,0 C 0,0 km/h (0 Bft)
17.12.2016 00:00 24,5 C -5,4 C 42 % 93 % 1036,6 hPa 0,0 l/m 0,0 km/h (0 Bft) N 0,00 h 0,0 UV-I 0 W/m -6,4 C -5,4 C 0,0 km/h (0 Bft)
17.12.2016 01:00 24,3 C -5,9 C 42 % 93 % 1036,9 hPa 0,0 l/m 0,0 km/h (0 Bft) N 0,00 h 0,0 UV-I 0 W/m -7,0 C -5,9 C 0,0 km/h (0 Bft)
17.12.2016 02:00 24,2 C -6,4 C 44 % 93 % 1037,0 hPa 0,0 l/m 0,0 km/h (0 Bft) N 0,00 h 0,0 UV-I 0 W/m -7,3 C -6,4 C 0,0 km/h (0 Bft)
17.12.2016 03:00 24,2 C -6,7 C 45 % 93 % 1037,3 hPa 0,0 l/m 0,0 km/h (0 Bft) N 0,00 h 0,0 UV-I 0 W/m -7,6 C -6,7 C 0,0 km/h (0 Bft)
17.12.2016 04:00 24,1 C -6,8 C 47 % 93 % 1037,4 hPa 0,0 l/m 0,0 km/h (0 Bft) N 0,00 h 0,0 UV-I 0 W/m -7,7 C -6,8 C 0,0 km/h (0 Bft)
17.12.2016 05:00 24,0 C -5,5 C 46 % 95 % 1037,6 hPa 0,0 l/m 0,0 km/h (0 Bft) N 0,00 h 0,0 UV-I 0 W/m -6,2 C -5,5 C 0,0 km/h (0 Bft)
17.12.2016 06:00 23,8 C -4,0 C 46 % 96 % 1037,9 hPa 0,0 l/m 0,2 km/h (0 Bft) S 0,00 h 0,0 UV-I 0 W/m -4,6 C -4,0 C 0,5 km/h (0 Bft)
17.12.2016 07:00 23,7 C -2,9 C 47 % 96 % 1038,5 hPa 0,0 l/m 2,9 km/h (1 Bft) S 0,00 h 0,0 UV-I 0 W/m -3,5 C -3,0 C 6,0 km/h (2 Bft)
17.12.2016 08:00 23,6 C -3,0 C 47 % 96 % 1038,9 hPa 0,0 l/m 1,6 km/h (1 Bft) W-SW 0,00 h 0,0 UV-I 7 W/m -3,6 C -3,0 C 4,0 km/h (1 Bft)
17.12.2016 09:00 23,5 C -3,1 C 48 % 96 % 1039,4 hPa 0,0 l/m 2,4 km/h (1 Bft) S-SW 0,00 h 0,0 UV-I 15 W/m -3,6 C -3,1 C 5,1 km/h (1 Bft)
17.12.2016 10:00 23,6 C -3,0 C 48 % 96 % 1039,7 hPa 0,0 l/m 2,2 km/h (1 Bft) W-SW 0,00 h 0,0 UV-I 28 W/m -3,6 C -3,0 C 4,9 km/h (1 Bft)
17.12.2016 11:00 23,6 C -2,8 C 48 % 96 % 1039,7 hPa 0,0 l/m 2,1 km/h (1 Bft) W-SW 0,00 h 0,0 UV-I 44 W/m -3,4 C -2,8 C 4,9 km/h (1 Bft)
17.12.2016 12:00 23,4 C -2,8 C 47 % 96 % 1039,6 hPa 0,0 l/m 2,9 km/h (1 Bft) S 0,00 h 0,0 UV-I 43 W/m -3,3 C -2,8 C 5,7 km/h (1 Bft)
17.12.2016 13:00 23,4 C -2,7 C 48 % 96 % 1039,9 hPa 0,0 l/m 2,3 km/h (1 Bft) S 0,00 h 0,0 UV-I 37 W/m -3,2 C -2,7 C 5,0 km/h (1 Bft)
17.12.2016 14:00 23,6 C -2,7 C 47 % 96 % 1040,1 hPa 0,0 l/m 2,1 km/h (1 Bft) S 0,00 h 0,0 UV-I 21 W/m -3,2 C -2,7 C 4,5 km/h (1 Bft)
17.12.2016 15:00 23,8 C -2,6 C 47 % 97 % 1040,3 hPa 0,0 l/m 1,3 km/h (1 Bft) S 0,00 h 0,0 UV-I 10 W/m -3,1 C -2,6 C 2,8 km/h (1 Bft)
17.12.2016 16:00 23,6 C -2,6 C 47 % 97 % 1040,6 hPa 0,0 l/m 1,7 km/h (1 Bft) S 0,00 h 0,0 UV-I 0 W/m -3,0 C -2,6 C 4,1 km/h (1 Bft)
17.12.2016 17:00 23,5 C -2,5 C 46 % 97 % 1040,8 hPa 0,0 l/m 1,4 km/h (1 Bft) S 0,00 h 0,0 UV-I 0 W/m -2,9 C -2,5 C 3,3 km/h (1 Bft)
17.12.2016 18:00 23,6 C -2,6 C 47 % 97 % 1040,9 hPa 0,0 l/m 0,3 km/h (0 Bft) W-SW 0,00 h 0,0 UV-I 0 W/m -3,0 C -2,6 C 1,3 km/h (1 Bft)
17.12.2016 19:00 23,6 C -2,5 C 47 % 97 % 1041,0 hPa 0,0 l/m 0,0 km/h (0 Bft) N 0,00 h 0,0 UV-I 0 W/m -2,9 C -2,5 C 0,1 km/h (0 Bft)
17.12.2016 20:00 23,7 C -2,3 C 47 % 97 % 1040,8 hPa 0,0 l/m 0,0 km/h (0 Bft) N 0,00 h 0,0 UV-I 0 W/m -2,7 C -2,3 C 0,0 km/h (0 Bft)
17.12.2016 21:00 23,9 C -2,2 C 48 % 97 % 1040,7 hPa 0,0 l/m 0,0 km/h (0 Bft) N 0,00 h 0,0 UV-I 0 W/m -2,6 C -2,2 C 0,0 km/h (0 Bft)
17.12.2016 22:00 23,9 C -2,1 C 46 % 97 % 1040,7 hPa 0,0 l/m 0,0 km/h (0 Bft) N 0,00 h 0,0 UV-I 0 W/m -2,5 C -2,1 C 0,0 km/h (0 Bft)
17.12.2016 23:00 23,9 C -2,0 C 46 % 97 % 1040,6 hPa 0,0 l/m 0,2 km/h (0 Bft) S-SO 0,00 h 0,0 UV-I 0 W/m -2,4 C -2,0 C 0,8 km/h (0 Bft)
18.12.2016 00:00 23,7 C -2,0 C 45 % 97 % 1039,8 hPa 0,0 l/m 0,5 km/h (0 Bft) S-SO 0,00 h 0,0 UV-I 0 W/m -2,4 C -2,0 C 1,4 km/h (1 Bft)
18.12.2016 01:00 23,8 C -1,9 C 45 % 97 % 1039,3 hPa 0,0 l/m 0,0 km/h (0 Bft) N 0,00 h 0,0 UV-I 0 W/m -2,3 C -1,9 C 0,0 km/h (0 Bft)
18.12.2016 02:00 23,9 C -1,8 C 46 % 97 % 1039,2 hPa 0,0 l/m 0,0 km/h (0 Bft) SW 0,00 h 0,0 UV-I 0 W/m -2,2 C -1,8 C 0,1 km/h (0 Bft)
18.12.2016 03:00 23,9 C -1,7 C 47 % 97 % 1038,7 hPa 0,0 l/m 0,0 km/h (0 Bft) N 0,00 h 0,0 UV-I 0 W/m -2,1 C -1,7 C 0,1 km/h (0 Bft)
18.12.2016 04:00 23,8 C -1,7 C 47 % 97 % 1038,1 hPa 0,0 l/m 0,0 km/h (0 Bft) N 0,00 h 0,0 UV-I 0 W/m -2,1 C -1,7 C 0,0 km/h (0 Bft)
18.12.2016 05:00 23,8 C -1,7 C 48 % 97 % 1037,7 hPa 0,0 l/m 0,1 km/h (0 Bft) S 0,00 h 0,0 UV-I 0 W/m -2,1 C -1,7 C 0,3 km/h (0 Bft)
18.12.2016 06:00 23,8 C -1,7 C 47 % 97 % 1037,1 hPa 0,0 l/m 0,5 km/h (0 Bft) S 0,00 h 0,0 UV-I 0 W/m -2,1 C -1,7 C 1,3 km/h (1 Bft)
18.12.2016 07:00 23,7 C -1,7 C 48 % 97 % 1036,7 hPa 0,0 l/m 0,4 km/h (0 Bft) S 0,00 h 0,0 UV-I 0 W/m -2,1 C -1,7 C 1,2 km/h (1 Bft)
18.12.2016 08:00 23,5 C -1,6 C 48 % 97 % 1036,9 hPa 0,0 l/m 0,1 km/h (0 Bft) S 0,00 h 0,0 UV-I 7 W/m -2,0 C -1,6 C 0,2 km/h (0 Bft)
18.12.2016 09:00 23,8 C -1,4 C 49 % 97 % 1036,9 hPa 0,0 l/m 0,0 km/h (0 Bft) N 0,00 h 0,0 UV-I 15 W/m -1,8 C -1,4 C 0,0 km/h (0 Bft)
18.12.2016 10:00 23,9 C -1,2 C 49 % 97 % 1036,6 hPa 0,0 l/m 0,4 km/h (0 Bft) S 0,00 h 0,0 UV-I 26 W/m -1,7 C -1,2 C 1,5 km/h (1 Bft)
18.12.2016 11:00 23,9 C -1,0 C 49 % 97 % 1036,0 hPa 0,0 l/m 0,0 km/h (0 Bft) N 0,00 h 0,0 UV-I 19 W/m -1,4 C -1,0 C 0,0 km/h (0 Bft)
18.12.2016 12:00 23,8 C -0,7 C 50 % 97 % 1035,2 hPa 0,0 l/m 0,0 km/h (0 Bft) N 0,00 h 0,0 UV-I 33 W/m -1,1 C -0,7 C 0,0 km/h (0 Bft)
18.12.2016 13:00 24,0 C -0,3 C 51 % 97 % 1034,5 hPa 0,0 l/m 0,0 km/h (0 Bft) N 0,00 h 0,0 UV-I 47 W/m -0,7 C -0,3 C 0,0 km/h (0 Bft)
18.12.2016 14:00 24,4 C -0,1 C 51 % 97 % 1034,2 hPa 0,0 l/m 0,0 km/h (0 Bft) N 0,00 h 0,0 UV-I 15 W/m -0,5 C -0,1 C 0,0 km/h (0 Bft)
18.12.2016 15:00 24,6 C -0,2 C 51 % 97 % 1034,0 hPa 0,0 l/m 0,2 km/h (0 Bft) S-SO 0,00 h 0,0 UV-I 7 W/m -0,6 C -0,2 C 0,7 km/h (0 Bft)
18.12.2016 16:00 24,5 C -0,2 C 52 % 97 % 1033,7 hPa 0,0 l/m 0,1 km/h (0 Bft) W-SW 0,00 h 0,0 UV-I 0 W/m -0,6 C -0,2 C 0,3 km/h (0 Bft)
18.12.2016 17:00 24,5 C -0,2 C 52 % 97 % 1033,5 hPa 0,0 l/m 0,0 km/h (0 Bft) N 0,00 h 0,0 UV-I 0 W/m -0,6 C -0,2 C 0,0 km/h (0 Bft)
18.12.2016 18:00 24,5 C -0,2 C 53 % 97 % 1033,2 hPa 0,0 l/m 0,0 km/h (0 Bft) N 0,00 h 0,0 UV-I 0 W/m -0,6 C -0,2 C 0,0 km/h (0 Bft)
18.12.2016 19:00 24,5 C -0,1 C 53 % 97 % 1033,1 hPa 0,2 l/m 0,0 km/h (0 Bft) N 0,00 h 0,0 UV-I 0 W/m -0,5 C -0,1 C 0,0 km/h (0 Bft)
18.12.2016 20:00 24,8 C -0,1 C 53 % 97 % 1033,1 hPa 0,0 l/m 0,0 km/h (0 Bft) N 0,00 h 0,0 UV-I 0 W/m -0,5 C -0,1 C 0,0 km/h (0 Bft)
18.12.2016 21:00 24,8 C -0,1 C 53 % 97 % 1032,9 hPa 0,0 l/m 0,0 km/h (0 Bft) N 0,00 h 0,0 UV-I 0 W/m -0,5 C -0,1 C 0,0 km/h (0 Bft)
18.12.2016 22:00 24,8 C 0,0 C 52 % 97 % 1032,9 hPa 0,0 l/m 0,0 km/h (0 Bft) N 0,00 h 0,0 UV-I 0 W/m -0,4 C 0,0 C 0,0 km/h (0 Bft)
18.12.2016 23:00 24,5 C 0,0 C 54 % 97 % 1032,8 hPa 0,0 l/m 0,0 km/h (0 Bft) N 0,00 h 0,0 UV-I 0 W/m -0,4 C 0,0 C 0,0 km/h (0 Bft)
Min-Datum _ 12.12.16 17.12.16 16.12.16 16.12.16 12.12.16 - 12.12.16 - - - - 17.12.16 16.12.16 12.12.16
_ Min-Zeit 11:34 04:22 13:19 14:26 00:32 - 03:06 - - - - 04:22 10:33 03:06
Minimum _ 22,0 C -7,0 C 36 % 85 % 1019,6 hPa - 0,0 km/h (0 Bft) - - - - -8,1 C -7,9 C 0,0 km/h (0 Bft)
Max-Datum _ 18.12.16 12.12.16 18.12.16 13.12.16 17.12.16 13.12.16 12.12.16 - 16.12.16 16.12.16 16.12.16 12.12.16 12.12.16 12.12.16
_ Max-Zeit 21:44 13:55 23:20 09:01 18:46 22:07 00:20 - 12:12 12:14 12:18 15:02 14:03 11:19
Maximum _ 24,9 C 5,4 C 54 % 98 % 1041,2 hPa 1,0 l/m 17,7 km/h
W (3 Bft)
- 0,02 h 0,7 UV-I 276 W/m 4,3 C 5,4 C 25,7 km/h
W (4 Bft)
Durchschnitt _ 23,6 C 0,7 C 48 % 95 % 1030,7 hPa #3,6 l/m 1,3 km/h (1 Bft) S #27 min. 0,5 UV-I 38 W/m -0,0 C 0,6 C 2,9 km/h (1 Bft)